User: anonymous   Login
Location: Ballingbuur
(53.0000°N, 5.7667°E)
Time: 02:39:09
(UTC+00:00)
Language:

ADEOS - Orbit

View from above orbital plane
View from above orbital plane
View from above satellite
View from above satellite

Ground track
Ground track

The orbit data is extracted from the following two-line orbital elements,

1 24277U 96046A   21060.48956914 -.00000025  00000-0  83624-5 0  9998
2 24277  98.9054  47.0064 0001387  30.7047 329.4215 14.29461779279330
Epoch (UTC): 01 March 2021 11:44:58
Eccentricity: 0.0001387
inclination: 98.9054°
perigee height: 792 km
apogee height: 794 km
right ascension of ascending node: 47.0064°
argument of perigee: 30.7047°
revolutions per day: 14.29461779
mean anomaly at epoch: 329.4215°
orbit number at epoch: 27933

The dashed part of the orbit path shows where the satellite is in the earth's shadow,  

DLR